Location: Newark
(25.6108°S, 54.5803°W)
Time: 20:01:37
(UTC+00:00)

Vanguard 2 Rocket - All Passes

Search period start: 28 October 2020 00:00
Search period end: 07 November 2020 00:00
Orbit: 554 x 3326 km, 32.9° (Epoch: 28 October)

Date Brightness Start Highest point End Pass type
(mag) Time Alt. Az. Time Alt. Az. Time Alt. Az.
28 Oct - 04:20:24 10° NNE 04:28:43 17° NE 04:38:48 10° E visible
28 Oct - 06:28:29 10° NW 06:44:03 55° NE 07:03:33 10° ESE visible
28 Oct - 08:43:12 10° WNW 09:02:36 86° SSW 09:21:46 10° ESE daylight
28 Oct - 11:02:23 10° W 11:23:01 68° S 11:38:09 10° E daylight
28 Oct - 13:23:25 10° WSW 13:42:06 80° SSE 13:53:00 10° ENE daylight
28 Oct - 15:44:03 10° WSW 15:57:25 48° NW 16:05:05 10° NNE daylight
29 Oct - 05:29:22 10° NNW 05:42:39 40° NE 06:00:24 10° ESE visible
29 Oct - 07:42:06 10° WNW 07:59:53 83° NNE 08:20:09 10° ESE visible
29 Oct - 09:59:39 10° W 10:20:05 71° S 10:37:20 10° ESE daylight
29 Oct - 12:20:10 10° WSW 12:40:14 72° S 12:53:06 10° E daylight
29 Oct - 14:40:52 10° WSW 14:57:14 69° NNW 15:06:25 10° NE daylight
29 Oct - 17:03:19 10° W 17:10:06 18° NW 17:15:07 10° NNW daylight
30 Oct - 04:31:12 10° N 04:41:50 27° NE 04:56:06 10° E visible
30 Oct - 06:41:48 10° NW 06:57:36 70° NNE 07:17:58 10° ESE visible
30 Oct - 08:57:34 10° W 09:16:59 76° SSW 09:36:05 10° ESE daylight
30 Oct - 11:17:05 10° WSW 11:37:45 69° S 11:52:44 10° E daylight
30 Oct - 13:37:42 10° WSW 13:56:21 86° NNW 14:07:14 10° ENE daylight
30 Oct - 15:58:55 10° WSW 16:10:43 33° NW 16:18:07 10° NNE daylight
31 Oct - 03:34:51 10° NNE 03:41:31 15° NE 03:49:43 10° E visible
31 Oct - 05:42:13 10° NW 05:55:55 55° NE 06:15:11 10° ESE visible
31 Oct - 07:56:12 10° WNW 08:14:00 85° SSW 08:34:23 10° ESE visible
31 Oct - 10:14:21 10° W 10:34:48 69° S 10:51:53 10° E daylight
31 Oct - 12:34:34 10° WSW 12:54:43 82° SSE 13:07:32 10° ENE daylight
31 Oct - 14:55:16 10° WSW 15:10:49 50° NW 15:19:59 10° NNE daylight
01 Nov - 04:43:25 10° NNW 04:54:55 39° NE 05:11:41 10° ESE visible
01 Nov - 06:55:34 10° WNW 07:11:25 84° NNE 07:32:13 10° ESE visible
01 Nov - 09:12:09 10° W 09:31:35 71° S 09:50:32 10° ESE daylight
01 Nov - 11:31:37 10° WSW 11:52:24 74° SSE 12:07:16 10° E daylight
01 Nov - 13:51:57 10° WSW 14:10:15 69° NNW 14:21:08 10° NE daylight
01 Nov - 16:14:43 10° W 16:23:47 21° NW 16:30:16 10° N daylight
02 Nov - 03:45:35 10° N 03:54:34 25° NE 04:07:11 10° E visible
02 Nov - 05:55:37 10° NW 06:09:26 70° NNE 06:29:35 10° ESE visible
02 Nov - 08:10:35 10° W 08:28:25 76° SSW 08:48:44 10° ESE visible
02 Nov - 10:28:59 10° WSW 10:49:32 70° S 11:06:29 10° E daylight
02 Nov - 12:48:50 10° WSW 13:08:55 85° NNW 13:21:42 10° ENE daylight
02 Nov - 15:10:07 10° WSW 15:24:04 35° NW 15:32:58 10° NNE daylight
03 Nov - 02:49:52 10° NNE 02:54:40 13° NE 03:00:26 10° ENE visible
03 Nov - 04:56:22 10° NW 05:08:10 54° NE 05:26:28 10° ESE visible
03 Nov - 07:09:42 10° WNW 07:25:34 83° SSW 07:46:28 10° ESE visible
03 Nov - 09:26:48 10° W 09:46:20 69° S 10:05:07 10° E daylight
03 Nov - 11:45:59 10° WSW 12:06:51 84° SSE 12:21:41 10° ENE daylight
03 Nov - 14:06:21 10° WSW 14:23:46 52° NW 14:34:37 10° NNE daylight
03 Nov - 16:33:27 10° WNW 16:36:50 11° NW 16:39:49 10° NW daylight
04 Nov - 03:57:50 10° NNW 04:07:37 38° NE 04:22:47 10° ESE visible
04 Nov - 06:09:28 10° WNW 06:23:17 85° NNE 06:43:49 10° ESE visible
04 Nov - 08:25:10 10° W 08:43:03 70° S 09:03:13 10° ESE visible
04 Nov - 10:43:29 10° WSW 11:04:10 76° SSE 11:21:02 10° E daylight
04 Nov - 13:03:05 10° WSW 13:22:45 69° NNW 13:35:33 10° NE daylight
04 Nov - 15:25:50 10° W 15:37:07 23° NW 15:45:09 10° N daylight
05 Nov - 03:00:17 10° N 03:07:41 23° NE 03:18:14 10° E visible
05 Nov - 05:09:52 10° NW 05:21:42 70° NNE 05:40:50 10° ESE visible
05 Nov - 07:24:06 10° W 07:40:01 74° SSW 08:00:50 10° ESE visible
05 Nov - 09:41:23 10° WSW 10:01:03 71° S 10:19:45 10° E daylight
05 Nov - 12:00:14 10° WSW 12:20:59 83° NNW 12:35:48 10° ENE daylight
05 Nov - 14:21:10 10° WSW 14:36:59 37° NW 14:47:32 10° NNE daylight
06 Nov - 02:05:50 10° NE 02:08:08 11° NE 02:10:42 10° ENE visible
06 Nov - 04:10:52 10° NW 04:20:52 53° NE 04:37:32 10° ESE visible
06 Nov - 06:23:38 10° WNW 06:37:29 82° SSW 06:58:05 10° ESE visible
06 Nov - 08:39:46 10° W 08:57:47 69° S 09:17:50 10° E daylight
06 Nov - 10:57:49 10° WSW 11:18:34 85° SSE 11:35:24 10° ENE daylight
06 Nov - 13:17:29 10° WSW 13:36:15 53° NW 13:48:56 10° NNE daylight
06 Nov - 15:43:47 10° WNW 15:50:08 14° NW 15:55:26 10° NNW daylight
